Weather History for KFUL - January, 2013

Change the Weather History Date:

Thursday, January 24, 2013

  Actual Average Record
Temperature  
Mean Temperature 64 °F 56 °F  
Max Temperature 71 °F 68 °F 85 °F (2015)
Min Temperature 57 °F 45 °F 37 °F (2002)
Degree Days  
Heating Degree Days 1 9  
Month to date heating degree days 189 216  
Since 1 July heating degree days 448 656  
Cooling Degree Days 0 0  
Month to date cooling degree days 2 0  
Year to date cooling degree days 2 0  
Growing Degree Days 14 (Base 50)    
Moisture  
Dew Point 53 °F    
Average Humidity 73    
Maximum Humidity 86    
Minimum Humidity 59    
Precipitation  
Precipitation 0.57 in 0.09 in 0.72 in (2013)
Month to date precipitation 0.61 2.51  
Year to date precipitation 0.61 2.51  
Since 1 July precipitation 3.92  
Snow  
Snow 0.00 in - - ()
Month to date snowfall 0.0  
Year to date snowfall 0.0  
Since 1 July snowfall 0.0  
Snow Depth 0.00 in    
Sea Level Pressure  
Sea Level Pressure 30.13 in    
Wind  
Wind Speed 8 mph (ENE)    
Max Wind Speed 14 mph    
Max Gust Speed 18 mph    
Visibility 8 miles    
Events Rain    
T = Trace of Precipitation, MM = Missing Value Source: NWS Daily Summary

Daily Weather History Graph

Daily Weather History Graph

Search for Another Location

Airport or City:

Trip Planner

Search our weather history database for the weather conditions in past years. The results will help you decide how hot, cold, wet, or windy it might be!

Date:

Astronomy

Jan. 24, 2013 Rise Set
Actual Time 6:53 AM PST 5:15 PM PST
Civil Twilight 6:26 AM PST 5:41 PM PST
Nautical Twilight 5:56 AM PST 6:12 PM PST
Astronomical Twilight 5:26 AM PST 6:41 PM PST
Moon 3:22 PM PST (1/24) 4:52 AM PST (1/24)
Length of Visible Light 11h 15m
Length of Day
10h 21m
Waxing Gibbous, 95% of the Moon is Illuminated
Jan 24
Waxing Gibbous
Jan 26
Full
Feb 3
Last Quarter
Feb 9
New
Feb 17
First Quarter

Hourly Weather History & Observations

Time (PST) Temp. Dew Point Humidity Pressure Visibility Wind Dir Wind Speed Gust Speed Precip Events Conditions
12:53 AM 61.0 °F 50.0 °F 67% 30.13 in 10.0 mi Calm Calm - 0.01 in Rain Light Rain
1:53 AM 60.1 °F 50.0 °F 69% 30.13 in 6.0 mi East 4.6 mph - 0.03 in Rain Rain
2:53 AM 57.9 °F 50.0 °F 75% 30.11 in 8.0 mi ENE 10.4 mph - 0.11 in Rain Light Rain
3:53 AM 57.9 °F 52.0 °F 81% 30.10 in 9.0 mi East 9.2 mph - 0.03 in Rain Light Rain
4:03 AM 57.2 °F 51.8 °F 82% 30.10 in 4.0 mi ENE 11.5 mph - 0.03 in Rain Heavy Rain
4:53 AM 57.0 °F 52.0 °F 83% 30.10 in 5.0 mi East 10.4 mph - 0.10 in Rain Light Rain
5:53 AM 57.0 °F 52.0 °F 83% 30.11 in 9.0 mi East 12.7 mph - 0.03 in Rain Light Rain
6:53 AM 57.0 °F 52.0 °F 83% 30.13 in 4.0 mi East 11.5 mph - 0.05 in Rain Light Rain
7:32 AM 57.2 °F 53.6 °F 88% 30.14 in 2.0 mi East 8.1 mph - 0.03 in Rain Rain
7:39 AM 57.2 °F 51.8 °F 82% 30.15 in 1.8 mi East 8.1 mph - 0.03 in Rain Rain
7:51 AM 57.2 °F 51.8 °F 82% 30.15 in 2.5 mi ENE 4.6 mph - 0.04 in Rain Rain
7:53 AM 57.0 °F 53.1 °F 87% 30.15 in 3.0 mi ENE 6.9 mph - 0.04 in Rain Rain
8:17 AM 57.2 °F 51.8 °F 82% 30.16 in 2.0 mi ENE 9.2 mph - 0.02 in Rain Rain
8:29 AM 57.2 °F 53.6 °F 88% 30.15 in 4.0 mi ENE 9.2 mph - 0.04 in Rain Light Rain
8:53 AM 57.9 °F 52.0 °F 81% 30.17 in 10.0 mi ENE 6.9 mph - 0.14 in Rain Light Rain
9:53 AM 60.1 °F 53.1 °F 78% 30.20 in 10.0 mi Calm Calm - 0.03 in   Overcast
10:53 AM 64.0 °F 54.0 °F 70% 30.19 in 10.0 mi East 10.4 mph - N/A   Overcast
11:53 AM 64.9 °F 54.0 °F 68% 30.17 in 10.0 mi East 12.7 mph - N/A   Overcast
12:53 PM 68.0 °F 53.1 °F 59% 30.14 in 10.0 mi ENE 8.1 mph - N/A   Overcast
1:53 PM 68.0 °F 53.1 °F 59% 30.13 in 10.0 mi East 5.8 mph - N/A   Overcast
2:53 PM 68.0 °F 53.1 °F 59% 30.11 in 10.0 mi Variable 5.8 mph - N/A   Overcast
3:53 PM 70.0 °F 53.1 °F 55% 30.10 in 10.0 mi Calm Calm - N/A   Mostly Cloudy
4:53 PM 69.1 °F 53.1 °F 57% 30.12 in 10.0 mi Calm Calm - N/A   Mostly Cloudy
5:53 PM 66.9 °F 54.0 °F 63% 30.12 in 10.0 mi Calm Calm - N/A   Mostly Cloudy
6:53 PM 64.9 °F 53.1 °F 65% 30.11 in 10.0 mi Calm Calm - N/A   Partly Cloudy
7:53 PM 63.0 °F 54.0 °F 72% 30.12 in 10.0 mi Calm Calm - N/A   Clear
8:53 PM 63.0 °F 54.0 °F 72% 30.12 in 10.0 mi Calm Calm - N/A   Scattered Clouds
9:53 PM 63.0 °F 54.0 °F 72% 30.12 in 10.0 mi Calm Calm - N/A   Mostly Cloudy
10:53 PM 62.1 °F 55.9 °F 80% 30.13 in 8.0 mi Calm Calm - 0.06 in Rain Light Rain
11:53 PM 62.1 °F 57.0 °F 84% 30.11 in 9.0 mi NNW 4.6 mph - 0.09 in Rain Light Rain